Regional Weather Roundup
Issued by NWS

Home | Current Version | Previous Version | Text Only | Print | Product List | Glossary On
Versions: 1 2 3 4 5 6 7 8 9 10 11 12 13 14 15 16 17 18 19 20 21 22 23 24 25 26 27 28 29 30 31 32 33 34 35 36 37 38 39 40 41 42 43 44 45 46 47 48 49 50
000
ASUS44 KJAN 021010
RWRMS

MISSISSIPPI HOURLY WEATHER ROUNDUP
NATIONAL WEATHER SERVICE JACKSON MS
500 AM CDT WED SEP 02 2015

NOTE: "FAIR: INDICATES FEW OR NO CLOUDS BELOW 12,000 FEET WITH NO
SIGNIFICANT WEATHER AND/OR OBSTRUCTIONS TO VISIBILITY.

MSZ001>002-007>008-010>013-018>021-025>028-034>036-021100-
NORTHWEST MISSISSIPPI

CITY           SKY/WX    TMP DP  RH WIND       PRES   REMARKS
CLARKSDALE       N/A     73  73 100 CALM      30.08R
GREENWOOD      CLOUDY    73  69  87 NE3       30.06S
GREENVILLE     LGT RAIN  75  72  90 CALM      30.05S FOG
OLIVE BRANCH   CLEAR     73  73 100 CALM      30.08S
OXFORD         FAIR      72  68  88 CALM      30.09S
$$

MSZ003>006-009-014>017-022>024-029>033-037>039-021100-
NORTHEAST MISSISSIPPI

CITY           SKY/WX    TMP DP  RH WIND       PRES   REMARKS
COLUMBUS AFB   CLOUDY    73  70  92 CALM      30.05S
CORINTH        FAIR      70  70 100 CALM      30.08S FOG
GOLDN TRIANGLE CLOUDY    72  66  83 CALM      30.06R
TUPELO         CLOUDY    73  71  93 NE3       30.07S
$$

MSZ040-058-021100-
CENTRAL MISSISSIPPI

CITY           SKY/WX    TMP DP  RH WIND       PRES   REMARKS
JACKSON INTL   CLOUDY    73  71  93 S3        30.05S
JACKSON HAWKNS CLOUDY    74  72  93 CALM      30.05S
MERIDIAN KEY   CLOUDY    72  70  93 CALM      30.05S
MERIDIAN NAS   MOCLDY    72  69  90 CALM      30.05F
VICKSBURG      CLOUDY    74  71  91 CALM      30.04S
$$

MSZ059>079-021100-
SOUTH MISSISSIPPI

CITY           SKY/WX    TMP DP  RH WIND       PRES   REMARKS
BROOKHAVEN       N/A     73  70  88 CALM      30.06F
HATTIESBURG    MOCLDY    73  69  87 CALM      30.05F
MCCOMB         CLOUDY    73  70  90 CALM      30.05S
NATCHEZ        CLOUDY    73  68  83 CALM      30.05F
PINE BELT      MOCLDY    72  45  37 CALM      30.06F
$$

MSZ080>082-021100-
COASTAL MISSISSIPPI

CITY           SKY/WX    TMP DP  RH WIND       PRES   REMARKS
BILOXI         CLOUDY    78  74  89 N2        30.03S
PASCAGOULA     CLOUDY    70  70 100 CALM      30.04S FOG
GULFPORT       CLOUDY    76  73  91 CALM      30.03S
$$


USA.gov is the U.S. government's official web portal to all federal, state and local government web resources and services.